Location: Unspecified
(0.0000°N, 0.0000°E)
Time: 05:11:03
(UTC+00:00)

SRMSAT - Pass Details

Date: 15 December 2017
Orbit: 849 x 866 km, 20.0° (Epoch: 18 January)

Event Time Altitude Azimuth Distance (km) Brightness Sun altitude
Exits shadow 05:21:03 - 299° (WNW) 2,561 ? -7.8°
Reaches altitude 10° 05:21:22 10° 301° (WNW) 2,481 ? -7.7°
Maximum altitude 05:25:29 19° 345° (NNW) 1,925 ? -6.8°
Drops below altitude 10° 05:29:36 10° 29° (NNE) 2,485 ? -5.9°
Sets 05:32:57 0° 47° (NE) 3,423 ? -5.1°
